Regional Weather Roundup
Issued by NWS

Home | Current Version | Previous Version | Text Only | Print | Product List | Glossary On
Versions: 1 2 3 4 5 6 7 8 9 10 11 12 13 14 15 16 17 18 19 20 21 22 23 24 25 26 27 28 29 30 31 32 33 34 35 36 37 38 39 40 41 42 43 44 45 46 47 48 49 50
532
ASUS43 KMKX 232159
RWRWI

WISCONSIN REGIONAL WEATHER ROUNDUP
NATIONAL WEATHER SERVICE MILWAUKEE/SULLIVAN WI
500 PM CDT MON APR 23 2018

NOTE: "FAIR" INDICATES FEW OR NO CLOUDS BELOW 12,000 FEET WITH NO
SIGNIFICANT WEATHER AND/OR OBSTRUCTIONS TO VISIBILITY.

WIZ001-002-006>008-014>016-023>028-232300-
NORTHWEST WISCONSIN

CITY           SKY/WX    TMP DP  RH WIND       PRES   REMARKS
SUPERIOR ARPT  FAIR      69  38  31 W8        30.10F
ASHLAND        FAIR      66  28  24 SW5       30.13F
HAYWARD        FAIR      65  31  28 S6        30.14F
SIREN          FAIR      67  31  25 W8        30.14S
CUMBERLAND     FAIR      59  32  36 CALM      30.16S
RICE LAKE      FAIR      64  32  30 CALM      30.17F
CHETEK         FAIR      64  36  34 N5        30.15F
LADYSMITH      FAIR      65  29  25 CALM      30.16F
EAU CLAIRE     FAIR      69  29  22 CALM      30.13F
MENOMONIE      FAIR      69  28  21 CALM      30.14S
NEW RICHMOND   FAIR      67  30  24 E5        30.15F
OSCEOLA        FAIR      68  32  26 CALM      30.16F
$$

WIZ003>005-009-010-017-018-232300-
NORTH CENTRAL WISCONSIN

CITY           SKY/WX    TMP DP  RH WIND       PRES   REMARKS
MANITOWISH WTR FAIR      61  28  28 NW6       30.15S
ARBOR VITAE    FAIR      62  26  25 NW6       30.15S
WOODRUFF       FAIR      62  26  25 NW6       30.15S
RHINELANDER    FAIR      63  25  23 CALM      30.16F
EAGLE RIVER    FAIR      60  22  23 SW7       30.15S
LAND O LAKES   FAIR      63  22  20 CALM      30.16F
PHILLIPS       FAIR      63  30  29 S6        30.14F
TOMAHAWK       FAIR      63  23  22 CALM      30.16F
MEDFORD        FAIR      60  32  34 S5        30.16F
MERRILL        FAIR      64  26  24 CALM      30.17S
$$

WIZ029-030-035-036-043>047-232300-
CENTRAL WISCONSIN

CITY           SKY/WX    TMP DP  RH WIND       PRES   REMARKS
WAUSAU         FAIR      64  24  21 CALM      30.13F
MOSINEE        MOSUNNY   63  25  23 VRB5      30.16F
MARSHFIELD     FAIR      62  27  26 SE6       30.14F
STEVENS POINT  FAIR      60  22  23 E5        30.17F
WAUPACA        FAIR      64  24  21 N7        30.17F
WAUTOMA        FAIR      64  25  22 E9        30.15F
WISC RAPIDS    FAIR      65  25  22 E8        30.16F
CAMP DOUGLAS   NOT AVBL
$$

WIZ011>013-019>022-031-037>040-048>050-232300-
NORTHEAST WISCONSIN

CITY           SKY/WX    TMP DP  RH WIND       PRES   REMARKS
ANTIGO         FAIR      60  27  28 E3        30.17F
SHAWANO        FAIR      64  25  22 CALM      30.17S
OCONTO         FAIR      62  24  23 E6        30.17S
STURGEON BAY   NOT AVBL
GREEN BAY      FAIR      62  32  32 NE7       30.17F
MANITOWOC      FAIR      60  26  27 VRB6      30.16F
APPLETON       SUNNY     63  21  20 NE7       30.15F
CLINTONVILLE   FAIR      62  20  20 CALM      30.16F
OSHKOSH        FAIR      61  33  35 NE8       30.16F
$$

WIZ032>034-041-042-053>061-232300-
SOUTHWEST WISCONSIN

CITY           SKY/WX    TMP DP  RH WIND       PRES   REMARKS
LA CROSSE      FAIR      71  26  18 W7        30.12F
SPARTA         FAIR      68  24  19 SE5       30.14F
VIROQUA        FAIR      66  33  28 N8        30.13F
BOSCOBEL       FAIR      69  27  20 E9        30.12F
PRAIRIE DU CHI FAIR      69  19  15 E5        30.11F
PLATTEVILLE    FAIR      66  27  22 NE10      30.12S
$$

WIZ056-057-062-063-064-067-068-232300-
SOUTH CENTRAL WISCONSIN

CITY           SKY/WX    TMP DP  RH WIND       PRES   REMARKS
REEDSBURG      FAIR      65  26  22 E6        30.13F
BARABOO/DELLS  FAIR      66  25  21 E7        30.14S
LONE ROCK      NOT AVBL
MINERAL POINT  FAIR      68  21  17 NE13      30.12S
MADISON        PTSUNNY   65  25  22 E12       30.12F
MIDDLETON      FAIR      67  29  24 NE10G17   30.13S
WATERTOWN      FAIR      64  26  23 NE8       30.12F
MONROE         FAIR      64  21  19 NE13      30.10F
JANESVILLE     MOSUNNY   68  23  18 E13       30.11S
$$

WIZ051-052-058>065-066-070>072-232300-
SOUTHEAST WISCONSIN

CITY           SKY/WX    TMP DP  RH WIND       PRES   REMARKS
MILWAUKEE      PTSUNNY   57  24  28 N14G23    30.14F
WAUKESHA       SUNNY     61  25  25 E7        30.14F
MILWAUKEE/TIMM SUNNY     61  12  15 NE15      30.15S
RACINE         FAIR      55  26  32 N17       30.14F
BURLINGTON     FAIR      65  24  20 E9        30.12F
KENOSHA        FAIR      62  22  21 NE15      30.12F
FOND DU LAC    FAIR      61  32  33 NE12      30.15F
SHEBOYGAN      FAIR      58  30  34 NE13      30.15F
WEST BEND      FAIR      63  23  22 NE6       30.14F
JUNEAU         FAIR      63  22  21 E6        30.15S
$$

LSZ147-162-232300-
LAKE SUPERIOR

STATION/POSITION TIME  TEMP    WIND        PRES    WAVE
                       AIR SEA DIR/SP/G            HT/PER
                 (UTC) (F)     (DEG/KT/KT) (MB)    (FT/S)
DEVILS ISLAND    2100   57     220/ 10/ 12 1020.2F
SAXON HARBOR     2130   53      70/  3/  6 1020.0S
$$

LMZ867-665-643>646-232300-
LAKE MICHIGAN

STATION/POSITION TIME  TEMP    WIND        PRES    WAVE
                       AIR SEA DIR/SP/G            HT/PER
                 (UTC) (F)     (DEG/KT/KT) (MB)    (FT/S)
NORTHPORT PIER   2140   42                 1022.0F
KEWAUNEE LAKESHO 2130   46      30/  4/  6 1021.1F
SHEBOYGAN LAKESH 2100   46      10/ 12/ 13 1021.8F
PORT WASHINGTON  2130   49      30/  8/  9 1021.7F
MILWAUKEE LAKESH 2130   52      20/ 14/ 16   N/A
KENOSHA   LAKESH 2100   48                 1020.3
$$

TC  - TEMPERATURE IN CELSIUS
VSB - VISIBILITY IN STATUTE MILES
WCI - WIND CHILL INDEX
HX  - HEAT INDEX





USA.gov is the U.S. government's official web portal to all federal, state and local government web resources and services.